Location: Korczew
(51.3586°N, 19.4491°E)
Time: 07:49:56
(UTC+00:00)

SL-24 R/B - RUBIN 2 - Pass Details

Date: 19 May 2025
Orbit: 587 x 1000 km, 64.6° (Epoch: 16 June)

Event Time Altitude Azimuth Distance (km) Brightness Sun altitude
Exits shadow 22:37:04 30° 199° (SSW) 1,629 5.1 -18.7°
Maximum altitude 22:40:14 66° 127° (SE) 994 4.4 -18.7°
Drops below altitude 10° 22:45:58 10° 46° (NE) 2,473 7.3 -18.6°
Sets 22:48:20 0° 44° (NE) 3,348 8.1 -18.6°
